#S.N.C.L,B084.PB.LDD.
#year,mon,day,hour,minute,second,value
2011,1,30,0,45,48.810000,2017980
2011,1,30,1,45,48.810000,2016610
2011,1,30,2,45,48.810000,2015070
2011,1,30,3,45,48.810000,2013490
2011,1,30,4,45,48.810000,2012010
2011,1,30,5,45,48.810000,2011070
2011,1,30,6,45,48.810000,2010910
2011,1,30,7,45,48.810000,2011560
2011,1,30,8,45,48.810000,2012960
2011,1,30,9,45,48.810000,2014580
2011,1,30,10,45,48.810000,2016290
2011,1,30,11,45,48.810000,2017720
2011,1,30,12,45,48.810000,2018670
2011,1,30,13,45,48.810000,2018990
2011,1,30,14,45,48.810000,2018860
2011,1,30,15,45,48.810000,2018420
2011,1,30,16,45,48.810000,2017830
2011,1,30,17,45,48.810000,2017330
2011,1,30,18,45,48.810000,2017120
2011,1,30,19,45,48.810000,2017100
2011,1,30,20,45,48.810000,2017310
2011,1,30,21,45,48.810000,2017860
2011,1,30,22,45,48.810000,2018410
2011,1,30,23,45,48.810000,2018440
2011,1,31,0,45,48.810000,2017930
2011,1,31,1,45,48.810000,2016870
2011,1,31,2,45,48.810000,2015210
2011,1,31,3,45,48.810000,2013150
2011,1,31,4,45,48.810000,2011260
2011,1,31,5,45,48.810000,2009710
2011,1,31,6,45,48.810000,2009060
2011,1,31,7,45,48.810000,2009200
2011,1,31,8,45,48.810000,2010240
2011,1,31,9,45,48.810000,2011940
2011,1,31,10,45,48.810000,2014030
2011,1,31,11,45,48.810000,2015970
2011,1,31,12,45,48.810000,2017510
2011,1,31,13,45,48.810000,2018460
2011,1,31,14,45,48.810000,2018690
2011,1,31,15,45,48.810000,2018340
2011,1,31,16,45,48.810000,2017770
2011,1,31,17,45,48.810000,2017190
2011,1,31,18,45,48.810000,2016800
2011,1,31,19,45,48.810000,2016750
2011,1,31,20,45,48.810000,2017070
2011,1,31,21,45,48.810000,2017660
2011,1,31,22,45,48.810000,2018530
2011,1,31,23,45,48.810000,2019320
2011,2,1,0,45,48.810000,2019530
2011,2,1,1,45,48.810000,2018970
2011,2,1,2,45,48.810000,2017680
2011,2,1,3,45,48.810000,2015810
2011,2,1,4,45,48.810000,2013720
2011,2,1,5,45,48.810000,2011800
2011,2,1,6,45,48.810000,2010450
2011,2,1,7,45,48.810000,2009930
2011,2,1,8,45,48.810000,2010330
2011,2,1,9,45,48.810000,2011620
2011,2,1,10,45,48.810000,2013380
2011,2,1,11,45,48.810000,2015390
2011,2,1,12,45,48.810000,2017190
2011,2,1,13,45,48.810000,2018350
2011,2,1,14,45,48.810000,2018760
2011,2,1,15,45,48.810000,2018420
2011,2,1,16,45,48.810000,2017330
2011,2,1,17,45,48.810000,2016290
2011,2,1,18,45,48.810000,2015640
2011,2,1,19,45,48.810000,2015250
2011,2,1,20,45,48.810000,2015210
2011,2,1,21,45,48.810000,2015810
2011,2,1,22,45,48.810000,2016980
2011,2,1,23,45,48.810000,2018160
2011,2,2,0,45,48.810000,2018970
2011,2,2,1,45,48.810000,2019070
2011,2,2,2,45,48.810000,2018390
2011,2,2,3,45,48.810000,2017050
2011,2,2,4,45,48.810000,2015160
2011,2,2,5,45,48.810000,2013260
2011,2,2,6,45,48.810000,2011810
2011,2,2,7,45,48.810000,2011070
2011,2,2,8,45,48.810000,2011320
2011,2,2,9,45,48.810000,2012610
2011,2,2,10,45,48.810000,2014670
2011,2,2,11,45,48.810000,2017010
2011,2,2,12,45,48.810000,2019310
2011,2,2,13,45,48.810000,2021140
2011,2,2,14,45,48.810000,2022100
2011,2,2,15,45,48.810000,2022150
2011,2,2,16,45,48.810000,2021510
2011,2,2,17,45,48.810000,2020560
2011,2,2,18,45,48.810000,2019610
2011,2,2,19,45,48.810000,2018900
2011,2,2,20,45,48.810000,2018710
2011,2,2,21,45,48.810000,2019250
2011,2,2,22,45,48.810000,2020470
2011,2,2,23,45,48.810000,2021880
2011,2,3,0,45,48.810000,2023200
2011,2,3,1,45,48.810000,2023860
2011,2,3,2,45,48.810000,2023650
2011,2,3,3,45,48.810000,2022540
2011,2,3,4,45,48.810000,2020740
2011,2,3,5,45,48.810000,2018580
2011,2,3,6,45,48.810000,2016730
2011,2,3,7,45,48.810000,2015440
2011,2,3,8,45,48.810000,2015090
2011,2,3,9,45,48.810000,2015690
2011,2,3,10,45,48.810000,2017170
2011,2,3,11,45,48.810000,2019130
2011,2,3,12,45,48.810000,2021210
2011,2,3,13,45,48.810000,2023010
2011,2,3,14,45,48.810000,2024140
2011,2,3,15,45,48.810000,2024390
2011,2,3,16,45,48.810000,2023880
2011,2,3,17,45,48.810000,2022880
2011,2,3,18,45,48.810000,2021620
2011,2,3,19,45,48.810000,2020410
2011,2,3,20,45,48.810000,2019670
2011,2,3,21,45,48.810000,2019730
2011,2,3,22,45,48.810000,2020660
2011,2,3,23,45,48.810000,2022110
2011,2,4,0,45,48.810000,2023540
2011,2,4,1,45,48.810000,2024500
2011,2,4,2,45,48.810000,2024800
2011,2,4,3,45,48.810000,2024160
2011,2,4,4,45,48.810000,2022640
2011,2,4,5,45,48.810000,2020670
2011,2,4,6,45,48.810000,2018530
2011,2,4,7,45,48.810000,2016820
2011,2,4,8,45,48.810000,2015870
2011,2,4,9,45,48.810000,2015810
2011,2,4,10,45,48.810000,2016730
2011,2,4,11,45,48.810000,2018340
2011,2,4,12,45,48.810000,2020350
2011,2,4,13,45,48.810000,2022170
2011,2,4,14,45,48.810000,2023420
2011,2,4,15,45,48.810000,2023880
2011,2,4,16,45,48.810000,2023560
2011,2,4,17,45,48.810000,2022540
2011,2,4,18,45,48.810000,2021070
2011,2,4,19,45,48.810000,2019570
2011,2,4,20,45,48.810000,2018480
2011,2,4,21,45,48.810000,2018180
2011,2,4,22,45,48.810000,2018690
2011,2,4,23,45,48.810000,2019870
2011,2,5,0,45,48.810000,2021420
2011,2,5,1,45,48.810000,2022710
2011,2,5,2,45,48.810000,2023420
2011,2,5,3,45,48.810000,2023290
2011,2,5,4,45,48.810000,2022390
2011,2,5,5,45,48.810000,2020820
2011,2,5,6,45,48.810000,2018830
2011,2,5,7,45,48.810000,2017010
2011,2,5,8,45,48.810000,2015760
2011,2,5,9,45,48.810000,2015300
2011,2,5,10,45,48.810000,2015760
2011,2,5,11,45,48.810000,2016930
2011,2,5,12,45,48.810000,2018620
2011,2,5,13,45,48.810000,2020350
2011,2,5,14,45,48.810000,2021710
2011,2,5,15,45,48.810000,2022300
2011,2,5,16,45,48.810000,2022250
2011,2,5,17,45,48.810000,2021230
2011,2,5,18,45,48.810000,2019660
2011,2,5,19,45,48.810000,2017930
2011,2,5,20,45,48.810000,2016380
2011,2,5,21,45,48.810000,2015550
2011,2,5,22,45,48.810000,2015620
2011,2,5,23,45,48.810000,2016480
2011,2,6,0,45,48.810000,2017700
2011,2,6,1,45,48.810000,2019090
2011,2,6,2,45,48.810000,2020190
2011,2,6,3,45,48.810000,2020560
2011,2,6,4,45,48.810000,2020190
2011,2,6,5,45,48.810000,2019110
2011,2,6,6,45,48.810000,2017680
2011,2,6,7,45,48.810000,2016060
2011,2,6,8,45,48.810000,2014860
2011,2,6,9,45,48.810000,2014350
2011,2,6,10,45,48.810000,2014610
2011,2,6,11,45,48.810000,2015580
2011,2,6,12,45,48.810000,2017120
2011,2,6,13,45,48.810000,2018920
2011,2,6,14,45,48.810000,2020630
2011,2,6,15,45,48.810000,2021720
2011,2,6,16,45,48.810000,2022130
2011,2,6,17,45,48.810000,2021630
2011,2,6,18,45,48.810000,2020470
2011,2,6,19,45,48.810000,2018930
2011,2,6,20,45,48.810000,2017450
2011,2,6,21,45,48.810000,2016500
2011,2,6,22,45,48.810000,2016380
2011,2,6,23,45,48.810000,2017080
2011,2,7,0,45,48.810000,2018420
2011,2,7,1,45,48.810000,2019970
2011,2,7,2,45,48.810000,2021420
2011,2,7,3,45,48.810000,2022430
2011,2,7,4,45,48.810000,2022780
2011,2,7,5,45,48.810000,2022270
2011,2,7,6,45,48.810000,2021230
2011,2,7,7,45,48.810000,2019850
2011,2,7,8,45,48.810000,2018510
2011,2,7,9,45,48.810000,2017590
2011,2,7,10,45,48.810000,2017290
2011,2,7,11,45,48.810000,2017720
2011,2,7,12,45,48.810000,2018760
2011,2,7,13,45,48.810000,2020140
2011,2,7,14,45,48.810000,2021440
2011,2,7,15,45,48.810000,2022340
2011,2,7,16,45,48.810000,2022690
2011,2,7,17,45,48.810000,2022180
2011,2,7,18,45,48.810000,2020930
2011,2,7,19,45,48.810000,2019130
2011,2,7,20,45,48.810000,2017240
2011,2,7,21,45,48.810000,2015600
2011,2,7,22,45,48.810000,2014680
2011,2,7,23,45,48.810000,2014560
2011,2,8,0,45,48.810000,2015050
2011,2,8,1,45,48.810000,2015740
2011,2,8,2,45,48.810000,2016610
2011,2,8,3,45,48.810000,2017380
2011,2,8,4,45,48.810000,2017510
2011,2,8,5,45,48.810000,2017030
2011,2,8,6,45,48.810000,2015990
2011,2,8,7,45,48.810000,2014810
2011,2,8,8,45,48.810000,2013590
2011,2,8,9,45,48.810000,2012680
2011,2,8,10,45,48.810000,2012090
2011,2,8,11,45,48.810000,2012020
2011,2,8,12,45,48.810000,2012340
2011,2,8,13,45,48.810000,2013100
2011,2,8,14,45,48.810000,2014280
2011,2,8,15,45,48.810000,2015340
2011,2,8,16,45,48.810000,2016040
2011,2,8,17,45,48.810000,2016090
2011,2,8,18,45,48.810000,2015460
2011,2,8,19,45,48.810000,2014280
2011,2,8,20,45,48.810000,2012780
2011,2,8,21,45,48.810000,2011460
2011,2,8,22,45,48.810000,2010590
2011,2,8,23,45,48.810000,2010420
2011,2,9,0,45,48.810000,2010820
2011,2,9,1,45,48.810000,2011860
2011,2,9,2,45,48.810000,2013190
2011,2,9,3,45,48.810000,2014490
2011,2,9,4,45,48.810000,2015490
2011,2,9,5,45,48.810000,2016080
2011,2,9,6,45,48.810000,2016170
2011,2,9,7,45,48.810000,2015920
2011,2,9,8,45,48.810000,2015410
2011,2,9,9,45,48.810000,2015000
2011,2,9,10,45,48.810000,2014770
2011,2,9,11,45,48.810000,2014880
2011,2,9,12,45,48.810000,2015530
2011,2,9,13,45,48.810000,2016480
2011,2,9,14,45,48.810000,2017630
2011,2,9,15,45,48.810000,2018730
2011,2,9,16,45,48.810000,2019430
2011,2,9,17,45,48.810000,2019610
2011,2,9,18,45,48.810000,2019180
2011,2,9,19,45,48.810000,2018190
2011,2,9,20,45,48.810000,2016780
2011,2,9,21,45,48.810000,2015370
2011,2,9,22,45,48.810000,2014260
2011,2,9,23,45,48.810000,2013630
2011,2,10,0,45,48.810000,2013380
2011,2,10,1,45,48.810000,2013660
2011,2,10,2,45,48.810000,2014450
2011,2,10,3,45,48.810000,2015410
2011,2,10,4,45,48.810000,2016310
2011,2,10,5,45,48.810000,2016990
2011,2,10,6,45,48.810000,2017280
2011,2,10,7,45,48.810000,2017310
2011,2,10,8,45,48.810000,2017100
2011,2,10,9,45,48.810000,2016730
2011,2,10,10,45,48.810000,2016380
2011,2,10,11,45,48.810000,2016150
2011,2,10,12,45,48.810000,2016330
2011,2,10,13,45,48.810000,2016870
2011,2,10,14,45,48.810000,2017670
2011,2,10,15,45,48.810000,2018430
2011,2,10,16,45,48.810000,2019160
2011,2,10,17,45,48.810000,2019550
2011,2,10,18,45,48.810000,2019500
2011,2,10,19,45,48.810000,2018830
2011,2,10,20,45,48.810000,2017680
2011,2,10,21,45,48.810000,2016360
2011,2,10,22,45,48.810000,2015030
2011,2,10,23,45,48.810000,2013960
2011,2,11,0,45,48.810000,2013240
2011,2,11,1,45,48.810000,2012990
2011,2,11,2,45,48.810000,2013260
2011,2,11,3,45,48.810000,2013880
2011,2,11,4,45,48.810000,2014650
2011,2,11,5,45,48.810000,2015480
2011,2,11,6,45,48.810000,2016220
2011,2,11,7,45,48.810000,2016870
2011,2,11,8,45,48.810000,2017300
2011,2,11,9,45,48.810000,2017420
2011,2,11,10,45,48.810000,2017420
2011,2,11,11,45,48.810000,2017470
2011,2,11,12,45,48.810000,2017620
2011,2,11,13,45,48.810000,2017910
2011,2,11,14,45,48.810000,2018440
2011,2,11,15,45,48.810000,2019100
2011,2,11,16,45,48.810000,2019890
2011,2,11,17,45,48.810000,2020490
2011,2,11,18,45,48.810000,2020790
2011,2,11,19,45,48.810000,2020720
2011,2,11,20,45,48.810000,2020240
2011,2,11,21,45,48.810000,2019480
2011,2,11,22,45,48.810000,2018550
2011,2,11,23,45,48.810000,2017610
2011,2,12,0,45,48.810000,2016730
2011,2,12,1,45,48.810000,2015950
2011,2,12,2,45,48.810000,2015620
2011,2,12,3,45,48.810000,2015760
2011,2,12,4,45,48.810000,2016290
2011,2,12,5,45,48.810000,2017080
2011,2,12,6,45,48.810000,2018090
2011,2,12,7,45,48.810000,2019100
2011,2,12,8,45,48.810000,2020000
2011,2,12,9,45,48.810000,2020790
2011,2,12,10,45,48.810000,2021300
2011,2,12,11,45,48.810000,2021530
2011,2,12,12,45,48.810000,2021620
2011,2,12,13,45,48.810000,2021650
2011,2,12,14,45,48.810000,2021740
2011,2,12,15,45,48.810000,2021900
2011,2,12,16,45,48.810000,2022270
2011,2,12,17,45,48.810000,2022620
2011,2,12,18,45,48.810000,2022900
2011,2,12,19,45,48.810000,2022940
2011,2,12,20,45,48.810000,2022690
2011,2,12,21,45,48.810000,2022110
2011,2,12,22,45,48.810000,2021300
2011,2,12,23,45,48.810000,2020260
2011,2,13,0,45,48.810000,2019040
2011,2,13,1,45,48.810000,2017630
2011,2,13,2,45,48.810000,2016480
2011,2,13,3,45,48.810000,2015710
2011,2,13,4,45,48.810000,2015420
2011,2,13,5,45,48.810000,2015710
2011,2,13,6,45,48.810000,2016410
2011,2,13,7,45,48.810000,2017350
2011,2,13,8,45,48.810000,2018480
2011,2,13,9,45,48.810000,2019540
2011,2,13,10,45,48.810000,2020300
2011,2,13,11,45,48.810000,2020770
2011,2,13,12,45,48.810000,2020790
2011,2,13,13,45,48.810000,2020610
2011,2,13,14,45,48.810000,2020260
2011,2,13,15,45,48.810000,2020050
2011,2,13,16,45,48.810000,2020000
2011,2,13,17,45,48.810000,2020050
2011,2,13,18,45,48.810000,2020210
2011,2,13,19,45,48.810000,2020350
2011,2,13,20,45,48.810000,2020420
2011,2,13,21,45,48.810000,2020360
2011,2,13,22,45,48.810000,2020050
2011,2,13,23,45,48.810000,2019360
2011,2,14,0,45,48.810000,2018250
2011,2,14,1,45,48.810000,2016760
2011,2,14,2,45,48.810000,2015230
2011,2,14,3,45,48.810000,2013860
2011,2,14,4,45,48.810000,2012960
2011,2,14,5,45,48.810000,2012620
2011,2,14,6,45,48.810000,2012890
2011,2,14,7,45,48.810000,2013770
2011,2,14,8,45,48.810000,2015190
2011,2,14,9,45,48.810000,2016920
2011,2,14,10,45,48.810000,2018430
2011,2,14,11,45,48.810000,2019470
2011,2,14,12,45,48.810000,2020010
2011,2,14,13,45,48.810000,2020010
2011,2,14,14,45,48.810000,2019690
2011,2,14,15,45,48.810000,2019320
2011,2,14,16,45,48.810000,2018850
2011,2,14,17,45,48.810000,2018580
2011,2,14,18,45,48.810000,2018690
2011,2,14,19,45,48.810000,2019180
2011,2,14,20,45,48.810000,2019730
2011,2,14,21,45,48.810000,2020380
2011,2,14,22,45,48.810000,2020870
2011,2,14,23,45,48.810000,2020790
2011,2,15,0,45,48.810000,2019920
2011,2,15,1,45,48.810000,2018370
2011,2,15,2,45,48.810000,2016730
2011,2,15,3,45,48.810000,2014890
2011,2,15,4,45,48.810000,2013220
2011,2,15,5,45,48.810000,2012110
2011,2,15,6,45,48.810000,2011860
2011,2,15,7,45,48.810000,2012500
2011,2,15,8,45,48.810000,2013860
2011,2,15,9,45,48.810000,2015720
2011,2,15,10,45,48.810000,2017560
2011,2,15,11,45,48.810000,2019010
2011,2,15,12,45,48.810000,2020050
2011,2,15,13,45,48.810000,2020400
2011,2,15,14,45,48.810000,2020100
2011,2,15,15,45,48.810000,2019430
2011,2,15,16,45,48.810000,2018560
2011,2,15,17,45,48.810000,2017820
2011,2,15,18,45,48.810000,2017400
2011,2,15,19,45,48.810000,2017490
2011,2,15,20,45,48.810000,2017860
2011,2,15,21,45,48.810000,2018670
2011,2,15,22,45,48.810000,2019550
2011,2,15,23,45,48.810000,2020030
2011,2,16,0,45,48.810000,2019760
2011,2,16,1,45,48.810000,2018670
2011,2,16,2,45,48.810000,2016910
2011,2,16,3,45,48.810000,2014630
2011,2,16,4,45,48.810000,2012340
2011,2,16,5,45,48.810000,2010380
2011,2,16,6,45,48.810000,2009150
2011,2,16,7,45,48.810000,2008970
2011,2,16,8,45,48.810000,2009930
2011,2,16,9,45,48.810000,2011620
2011,2,16,10,45,48.810000,2013680
2011,2,16,11,45,48.810000,2015550
2011,2,16,12,45,48.810000,2017050
2011,2,16,13,45,48.810000,2017720
2011,2,16,14,45,48.810000,2017510
2011,2,16,15,45,48.810000,2016610
2011,2,16,16,45,48.810000,2015270
2011,2,16,17,45,48.810000,2013950
2011,2,16,18,45,48.810000,2013000
2011,2,16,19,45,48.810000,2012590
2011,2,16,20,45,48.810000,2012830
2011,2,16,21,45,48.810000,2013750
2011,2,16,22,45,48.810000,2015210
2011,2,16,23,45,48.810000,2016590
2011,2,17,0,45,48.810000,2017280
2011,2,17,1,45,48.810000,2017150
2011,2,17,2,45,48.810000,2016010
2011,2,17,3,45,48.810000,2013750
2011,2,17,4,45,48.810000,2011110
2011,2,17,5,45,48.810000,2008570
2011,2,17,6,45,48.810000,2006660
2011,2,17,7,45,48.810000,2005940
2011,2,17,8,45,48.810000,2006610
2011,2,17,9,45,48.810000,2008280
2011,2,17,10,45,48.810000,2010700
2011,2,17,11,45,48.810000,2013170
2011,2,17,12,45,48.810000,2015370
2011,2,17,13,45,48.810000,2016860
2011,2,17,14,45,48.810000,2017310
2011,2,17,15,45,48.810000,2016870
2011,2,17,16,45,48.810000,2015720
2011,2,17,17,45,48.810000,2014260
2011,2,17,18,45,48.810000,2013010
2011,2,17,19,45,48.810000,2012270
2011,2,17,20,45,48.810000,2012210
2011,2,17,21,45,48.810000,2012990
2011,2,17,22,45,48.810000,2014520
2011,2,17,23,45,48.810000,2016270
2011,2,18,0,45,48.810000,2017750
2011,2,18,1,45,48.810000,2018350
2011,2,18,2,45,48.810000,2018020
2011,2,18,3,45,48.810000,2016550
2011,2,18,4,45,48.810000,2014160
2011,2,18,5,45,48.810000,2011460
2011,2,18,6,45,48.810000,2008970
2011,2,18,7,45,48.810000,2007330
2011,2,18,8,45,48.810000,2006930
2011,2,18,9,45,48.810000,2007670
2011,2,18,10,45,48.810000,2009290
2011,2,18,11,45,48.810000,2011650
2011,2,18,12,45,48.810000,2014090
2011,2,18,13,45,48.810000,2016010
2011,2,18,14,45,48.810000,2016940
2011,2,18,15,45,48.810000,2016850
2011,2,18,16,45,48.810000,2015730
2011,2,18,17,45,48.810000,2014140
2011,2,18,18,45,48.810000,2012590
2011,2,18,19,45,48.810000,2011300
2011,2,18,20,45,48.810000,2010510
2011,2,18,21,45,48.810000,2010490
2011,2,18,22,45,48.810000,2011580
2011,2,18,23,45,48.810000,2013380
2011,2,19,0,45,48.810000,2015410
2011,2,19,1,45,48.810000,2017070
2011,2,19,2,45,48.810000,2017650
2011,2,19,3,45,48.810000,2016850
2011,2,19,4,45,48.810000,2014930
2011,2,19,5,45,48.810000,2012410
2011,2,19,6,45,48.810000,2009750
2011,2,19,7,45,48.810000,2007560
2011,2,19,8,45,48.810000,2006260
2011,2,19,9,45,48.810000,2006310
2011,2,19,10,45,48.810000,2007470
2011,2,19,11,45,48.810000,2009470
2011,2,19,12,45,48.810000,2011810
2011,2,19,13,45,48.810000,2014020
2011,2,19,14,45,48.810000,2015440
2011,2,19,15,45,48.810000,2015740
2011,2,19,16,45,48.810000,2014930
2011,2,19,17,45,48.810000,2013280
2011,2,19,18,45,48.810000,2011300
2011,2,19,19,45,48.810000,2009330
2011,2,19,20,45,48.810000,2007910
2011,2,19,21,45,48.810000,2007560
2011,2,19,22,45,48.810000,2008300
2011,2,19,23,45,48.810000,2010030
2011,2,20,0,45,48.810000,2012160
2011,2,20,1,45,48.810000,2014150
2011,2,20,2,45,48.810000,2015620
2011,2,20,3,45,48.810000,2016080
2011,2,20,4,45,48.810000,2015370
2011,2,20,5,45,48.810000,2013670
2011,2,20,6,45,48.810000,2011570
2011,2,20,7,45,48.810000,2009480
2011,2,20,8,45,48.810000,2007980
2011,2,20,9,45,48.810000,2007370
2011,2,20,10,45,48.810000,2007880
2011,2,20,11,45,48.810000,2009290
2011,2,20,12,45,48.810000,2011430
2011,2,20,13,45,48.810000,2013720
2011,2,20,14,45,48.810000,2015580
2011,2,20,15,45,48.810000,2016590
2011,2,20,16,45,48.810000,2016470
2011,2,20,17,45,48.810000,2015280
2011,2,20,18,45,48.810000,2013490
2011,2,20,19,45,48.810000,2011500
2011,2,20,20,45,48.810000,2009730
2011,2,20,21,45,48.810000,2008780
2011,2,20,22,45,48.810000,2008900
2011,2,20,23,45,48.810000,2010050
2011,2,21,0,45,48.810000,2011950
2011,2,21,1,45,48.810000,2014120
2011,2,21,2,45,48.810000,2016110
2011,2,21,3,45,48.810000,2017370
2011,2,21,4,45,48.810000,2017680
2011,2,21,5,45,48.810000,2017030
2011,2,21,6,45,48.810000,2015600
2011,2,21,7,45,48.810000,2013790
2011,2,21,8,45,48.810000,2012110
2011,2,21,9,45,48.810000,2011020
2011,2,21,10,45,48.810000,2010810
2011,2,21,11,45,48.810000,2011460
2011,2,21,12,45,48.810000,2012780
2011,2,21,13,45,48.810000,2014440
2011,2,21,14,45,48.810000,2015950
2011,2,21,15,45,48.810000,2016960
2011,2,21,16,45,48.810000,2017070
2011,2,21,17,45,48.810000,2016170
2011,2,21,18,45,48.810000,2014540
2011,2,21,19,45,48.810000,2012450
2011,2,21,20,45,48.810000,2010280
2011,2,21,21,45,48.810000,2008620
2011,2,21,22,45,48.810000,2007880
2011,2,21,23,45,48.810000,2008050
2011,2,22,0,45,48.810000,2009110
2011,2,22,1,45,48.810000,2010810
2011,2,22,2,45,48.810000,2012680
2011,2,22,3,45,48.810000,2014280
2011,2,22,4,45,48.810000,2015280
2011,2,22,5,45,48.810000,2015500
2011,2,22,6,45,48.810000,2014930
2011,2,22,7,45,48.810000,2013880
2011,2,22,8,45,48.810000,2012660
2011,2,22,9,45,48.810000,2011660
2011,2,22,10,45,48.810000,2011140
2011,2,22,11,45,48.810000,2011280
2011,2,22,12,45,48.810000,2012180
2011,2,22,13,45,48.810000,2013540
2011,2,22,14,45,48.810000,2015020
2011,2,22,15,45,48.810000,2016220
2011,2,22,16,45,48.810000,2016840
2011,2,22,17,45,48.810000,2016640
2011,2,22,18,45,48.810000,2015640
2011,2,22,19,45,48.810000,2013980
2011,2,22,20,45,48.810000,2012060
2011,2,22,21,45,48.810000,2010370
2011,2,22,22,45,48.810000,2009250
2011,2,22,23,45,48.810000,2008850
2011,2,23,0,45,48.810000,2009250
2011,2,23,1,45,48.810000,2010260
2011,2,23,2,45,48.810000,2011640
2011,2,23,3,45,48.810000,2013100
2011,2,23,4,45,48.810000,2014280
2011,2,23,5,45,48.810000,2015000
2011,2,23,6,45,48.810000,2015160
2011,2,23,7,45,48.810000,2014810
2011,2,23,8,45,48.810000,2014170
2011,2,23,9,45,48.810000,2013490
2011,2,23,10,45,48.810000,2012980
2011,2,23,11,45,48.810000,2012840
2011,2,23,12,45,48.810000,2013150
2011,2,23,13,45,48.810000,2013880
2011,2,23,14,45,48.810000,2014830
2011,2,23,15,45,48.810000,2015710
2011,2,23,16,45,48.810000,2016310
2011,2,23,17,45,48.810000,2016380
2011,2,23,18,45,48.810000,2015900
2011,2,23,19,45,48.810000,2014910
2011,2,23,20,45,48.810000,2013420
2011,2,23,21,45,48.810000,2011760
2011,2,23,22,45,48.810000,2010350
2011,2,23,23,45,48.810000,2009400
2011,2,24,0,45,48.810000,2009010
2011,2,24,1,45,48.810000,2009270
2011,2,24,2,45,48.810000,2010070
2011,2,24,3,45,48.810000,2011140
2011,2,24,4,45,48.810000,2012290
2011,2,24,5,45,48.810000,2013310
2011,2,24,6,45,48.810000,2014120
2011,2,24,7,45,48.810000,2014520
2011,2,24,8,45,48.810000,2014680
2011,2,24,9,45,48.810000,2014680
2011,2,24,10,45,48.810000,2014510
2011,2,24,11,45,48.810000,2014420
2011,2,24,12,45,48.810000,2014610
2011,2,24,13,45,48.810000,2015030
2011,2,24,14,45,48.810000,2015580
2011,2,24,15,45,48.810000,2016270
2011,2,24,16,45,48.810000,2016910
2011,2,24,17,45,48.810000,2017350
2011,2,24,18,45,48.810000,2017380
2011,2,24,19,45,48.810000,2016900
2011,2,24,20,45,48.810000,2015950
2011,2,24,21,45,48.810000,2014710
2011,2,24,22,45,48.810000,2013420
2011,2,24,23,45,48.810000,2012090
2011,2,25,0,45,48.810000,2011190
2011,2,25,1,45,48.810000,2010750
2011,2,25,2,45,48.810000,2010830
2011,2,25,3,45,48.810000,2011210
2011,2,25,4,45,48.810000,2011900
2011,2,25,5,45,48.810000,2012840
2011,2,25,6,45,48.810000,2013820
2011,2,25,7,45,48.810000,2014610
2011,2,25,8,45,48.810000,2015140
2011,2,25,9,45,48.810000,2015410
2011,2,25,10,45,48.810000,2015550
2011,2,25,11,45,48.810000,2015440
2011,2,25,12,45,48.810000,2015320
2011,2,25,13,45,48.810000,2015200
2011,2,25,14,45,48.810000,2015200
2011,2,25,15,45,48.810000,2015350
2011,2,25,16,45,48.810000,2015730
2011,2,25,17,45,48.810000,2016060
2011,2,25,18,45,48.810000,2016180
2011,2,25,19,45,48.810000,2015920
2011,2,25,20,45,48.810000,2015280
2011,2,25,21,45,48.810000,2014440
2011,2,25,22,45,48.810000,2013350
2011,2,25,23,45,48.810000,2012010
2011,2,26,0,45,48.810000,2010580
2011,2,26,1,45,48.810000,2009380
2011,2,26,2,45,48.810000,2008410
2011,2,26,3,45,48.810000,2007860
2011,2,26,4,45,48.810000,2007650
2011,2,26,5,45,48.810000,2007860
2011,2,26,6,45,48.810000,2008250
2011,2,26,7,45,48.810000,2008970
2011,2,26,8,45,48.810000,2009710
2011,2,26,9,45,48.810000,2010280
2011,2,26,10,45,48.810000,2010580
2011,2,26,11,45,48.810000,2010680
2011,2,26,12,45,48.810000,2010560
2011,2,26,13,45,48.810000,2010440
2011,2,26,14,45,48.810000,2010230
2011,2,26,15,45,48.810000,2010030
2011,2,26,16,45,48.810000,2009910
2011,2,26,17,45,48.810000,2010010
2011,2,26,18,45,48.810000,2010100
2011,2,26,19,45,48.810000,2010170
2011,2,26,20,45,48.810000,2010050
2011,2,26,21,45,48.810000,2009770
2011,2,26,22,45,48.810000,2009110
2011,2,26,23,45,48.810000,2008270
2011,2,27,0,45,48.810000,2007220
2011,2,27,1,45,48.810000,2005900
2011,2,27,2,45,48.810000,2004620
2011,2,27,3,45,48.810000,2003560
2011,2,27,4,45,48.810000,2002780
2011,2,27,5,45,48.810000,2002660
2011,2,27,6,45,48.810000,2003130
2011,2,27,7,45,48.810000,2004160
2011,2,27,8,45,48.810000,2005510
2011,2,27,9,45,48.810000,2007090
2011,2,27,10,45,48.810000,2008360
2011,2,27,11,45,48.810000,2009340
2011,2,27,12,45,48.810000,2010030
2011,2,27,13,45,48.810000,2010400
2011,2,27,14,45,48.810000,2010470
2011,2,27,15,45,48.810000,2010610
2011,2,27,16,45,48.810000,2010770
2011,2,27,17,45,48.810000,2011070
2011,2,27,18,45,48.810000,2011690
2011,2,27,19,45,48.810000,2012480
2011,2,27,20,45,48.810000,2013260
2011,2,27,21,45,48.810000,2013960
2011,2,27,22,45,48.810000,2014450
2011,2,27,23,45,48.810000,2014450
2011,2,28,0,45,48.810000,2014000
2011,2,28,1,45,48.810000,2013100
2011,2,28,2,45,48.810000,2011870
2011,2,28,3,45,48.810000,2010830
2011,2,28,4,45,48.810000,2010050
2011,2,28,5,45,48.810000,2009800
2011,2,28,6,45,48.810000,2010080
2011,2,28,7,45,48.810000,2011040
2011,2,28,8,45,48.810000,2012490
2011,2,28,9,45,48.810000,2014170
2011,2,28,10,45,48.810000,2015820
2011,2,28,11,45,48.810000,2017160
2011,2,28,12,45,48.810000,2017930
2011,2,28,13,45,48.810000,2018210
2011,2,28,14,45,48.810000,2017930
2011,2,28,15,45,48.810000,2017350
2011,2,28,16,45,48.810000,2016750
2011,2,28,17,45,48.810000,2016270
2011,2,28,18,45,48.810000,2016170
2011,2,28,19,45,48.810000,2016470
2011,2,28,20,45,48.810000,2017030
2011,2,28,21,45,48.810000,2017720
2011,2,28,22,45,48.810000,2018300